Zurück zum Katalog

SL-8 DEB

AktivLEO
NORAD 57165·DEBRIS·🇷🇺 Russia

Gestartet Oct 12, 1983 von Plesetsk Cosmodrome

Loading…

Nächste Überflüge (nächste 24 Stunden)

TLE

AlterndSource: Space-Track

Epoche: Sep 10, 2026, 05:57 UTC

1 57165U 83103C   26253.24846056  .00000093  00000-0  40549-4 0  9990
2 57165  74.0489 209.4045 0022500 296.2006  63.6834 14.36405611670763

Verfolge SL-8 DEB in Echtzeit mit AllMySat

Download on the App Store